Date,Time,Wetness (Wet Dry or Ice),Wind Speed (m/s),Temperature (C),Humidity (%),Pressure (mb),Radiation (W/m^2)
2018-03-18,02:25:00,DRY,9.65,5.60,55.5,775.00,0.0
2018-03-18,02:30:00,DRY,7.40,5.50,55.3,775.00,0.0
2018-03-18,02:35:00,DRY,6.65,5.05,59.0,775.00,0.0
2018-03-18,02:40:00,DRY,6.97,4.97,59.3,775.00,0.0
2018-03-18,02:45:00,DRY,8.60,4.90,59.5,775.00,0.0
2018-03-18,02:50:00,WET,7.50,4.67,61.3,775.00,0.0
2018-03-18,02:55:00,DRY,7.95,4.80,59.5,775.00,0.0
2018-03-18,03:00:00,DRY,7.60,4.47,61.3,775.00,0.0
2018-03-18,03:05:00,WET,7.85,4.35,63.0,775.00,0.0
2018-03-18,03:10:00,WET,7.73,4.43,61.7,775.00,0.0
2018-03-18,03:15:00,DRY,8.60,4.50,60.5,775.00,0.0
2018-03-18,03:20:00,DRY,8.67,5.27,55.3,775.00,0.0
2018-03-18,03:25:00,DRY,7.60,5.30,56.0,775.00,0.0
2018-03-18,03:30:00,DRY,7.97,5.37,55.3,775.00,0.0
2018-03-18,03:35:00,DRY,8.30,5.35,56.0,775.00,0.0
2018-03-18,03:40:00,DRY,7.87,5.87,53.0,775.00,0.0
2018-03-18,03:45:00,DRY,6.75,5.15,56.5,775.00,0.0
2018-03-18,03:50:00,DRY,6.53,4.80,59.7,775.00,0.0
2018-03-18,03:55:00,DRY,6.85,4.75,60.0,775.00,0.0
2018-03-18,04:00:00,DRY,7.57,4.73,60.3,774.33,0.0
2018-03-18,04:05:00,DRY,7.95,4.65,61.0,774.00,0.0
2018-03-18,04:10:00,WET,9.23,5.00,59.7,774.00,0.0
2018-03-18,04:15:00,WET,7.75,4.85,61.0,774.00,0.0
2018-03-18,04:20:00,WET,7.77,4.80,61.3,774.00,0.0
2018-03-18,04:25:00,WET,9.00,4.60,63.5,774.00,0.0
2018-03-18,04:30:00,WET,8.00,4.67,64.0,774.00,0.0
2018-03-18,04:35:00,WET,7.10,4.65,64.0,774.00,0.0
2018-03-18,04:40:00,WET,7.87,4.70,64.0,774.00,0.0
2018-03-18,04:45:00,WET,7.65,4.80,63.0,774.00,0.0
2018-03-18,04:50:00,WET,8.77,4.90,62.0,774.00,0.0
2018-03-18,04:55:00,WET,8.90,5.10,61.0,774.00,0.0
2018-03-18,05:00:00,WET,9.13,5.03,61.7,774.00,0.0
2018-03-18,05:05:00,WET,9.60,5.10,61.5,774.00,0.0
2018-03-18,05:10:00,WET,7.87,5.03,62.0,774.00,0.0
2018-03-18,05:15:00,WET,8.50,5.15,59.0,774.00,0.0
2018-03-18,05:20:00,WET,7.33,5.17,56.7,774.00,0.0
2018-03-18,05:25:00,DRY,8.60,5.15,54.5,774.00,0.0
2018-03-18,05:30:00,DRY,7.53,5.03,55.0,774.00,0.0
2018-03-18,05:35:00,DRY,6.85,4.80,55.5,774.00,0.0
2018-03-18,05:40:00,DRY,7.07,4.73,53.7,774.00,0.0
2018-03-18,05:45:00,DRY,8.05,4.80,53.0,774.00,0.0
2018-03-18,05:50:00,DRY,7.77,4.97,50.7,774.00,0.0
2018-03-18,05:55:00,DRY,7.05,4.75,52.5,774.00,0.0
2018-03-18,06:00:00,DRY,7.67,5.03,49.3,774.00,0.0
2018-03-18,06:05:00,DRY,6.90,5.25,48.0,774.00,0.0
2018-03-18,06:10:00,DRY,8.17,4.73,51.7,774.00,0.0
2018-03-18,06:15:00,DRY,8.05,4.60,52.5,774.00,0.0
2018-03-18,06:20:00,DRY,7.70,4.53,53.0,774.00,0.0
2018-03-18,06:25:00,DRY,7.55,4.65,51.5,774.00,0.0
2018-03-18,06:30:00,DRY,6.97,4.63,51.0,774.00,0.0
2018-03-18,06:35:00,DRY,8.00,4.75,51.0,774.00,0.0
2018-03-18,06:40:00,DRY,7.10,4.43,53.7,774.67,0.0
2018-03-18,06:45:00,DRY,8.35,4.70,52.0,774.00,0.0
2018-03-18,06:50:00,DRY,8.03,4.80,51.0,774.33,0.1
2018-03-18,06:55:00,DRY,6.75,4.80,51.5,775.00,0.0
2018-03-18,07:00:00,DRY,8.17,4.80,49.3,774.67,0.0
2018-03-18,07:05:00,DRY,6.45,4.80,50.0,775.00,0.0
2018-03-18,07:10:00,DRY,7.10,4.77,50.7,775.00,0.0
2018-03-18,07:15:00,DRY,6.65,4.65,52.0,775.00,1.2
2018-03-18,07:20:00,DRY,7.60,4.23,54.3,775.00,3.2
2018-03-18,07:25:00,DRY,5.90,4.15,55.5,775.00,5.6
2018-03-18,07:30:00,DRY,7.17,4.17,55.3,775.00,8.8
2018-03-18,07:35:00,DRY,5.90,4.30,55.0,775.00,10.7
2018-03-18,07:40:00,DRY,7.20,4.20,55.7,775.00,13.5
2018-03-18,07:45:00,DRY,8.15,4.50,55.0,775.00,15.3
2018-03-18,07:50:00,DRY,7.57,4.53,54.3,775.00,17.2
2018-03-18,07:55:00,DRY,8.25,4.55,55.0,775.00,18.7
2018-03-18,08:00:00,DRY,8.00,4.53,55.7,775.00,20.2
2018-03-18,08:05:00,DRY,8.55,4.65,55.0,775.00,21.9
2018-03-18,08:10:00,DRY,8.37,4.70,55.0,775.00,94.3
2018-03-18,08:15:00,DRY,8.30,4.90,53.5,775.00,233.8
2018-03-18,08:20:00,DRY,8.53,5.07,52.7,775.00,255.6
2018-03-18,08:25:00,DRY,7.05,5.30,51.5,775.00,277.1
2018-03-18,08:30:00,DRY,8.00,5.17,53.3,775.00,298.9
2018-03-18,08:35:00,DRY,8.10,5.10,54.5,775.00,319.3
2018-03-18,08:40:00,DRY,8.17,5.30,53.0,775.00,340.0
2018-03-18,08:45:00,DRY,7.45,5.30,53.5,775.00,361.7
2018-03-18,08:50:00,DRY,7.73,5.43,53.0,775.00,381.9
2018-03-18,08:55:00,DRY,8.10,5.55,53.0,775.00,403.5
2018-03-18,09:00:00,DRY,7.47,5.67,52.0,775.00,423.4
2018-03-18,09:05:00,DRY,8.50,5.85,50.5,775.00,442.9
2018-03-18,09:10:00,DRY,8.00,6.00,51.7,775.00,464.5
2018-03-18,09:15:00,DRY,7.55,6.20,51.0,775.00,484.2
2018-03-18,09:20:00,DRY,8.13,6.37,48.0,775.00,503.8
2018-03-18,09:25:00,DRY,8.15,6.30,49.5,775.00,522.1
2018-03-18,09:30:00,DRY,8.60,6.23,49.3,775.67,542.0
2018-03-18,09:35:00,DRY,8.10,6.25,49.5,775.50,560.0
2018-03-18,09:40:00,DRY,8.30,6.33,48.7,775.67,578.2
2018-03-18,09:45:00,DRY,8.80,6.55,46.5,775.50,598.0
2018-03-18,09:50:00,DRY,8.33,6.43,48.3,775.67,615.5
2018-03-18,09:55:00,DRY,7.65,6.50,48.0,775.50,632.5
2018-03-18,10:00:00,DRY,7.97,6.47,50.0,775.67,648.5
2018-03-18,10:05:00,DRY,8.55,6.25,54.0,775.50,665.4
2018-03-18,10:10:00,DRY,7.33,6.13,59.3,776.00,681.6
2018-03-18,10:15:00,DRY,5.60,6.50,55.0,775.50,696.6
2018-03-18,10:20:00,DRY,9.50,6.23,55.7,776.00,712.7
2018-03-18,10:25:00,DRY,10.75,6.55,52.0,776.00,723.6
2018-03-18,10:30:00,DRY,8.60,6.53,55.7,776.00,740.1
2018-03-18,10:35:00,DRY,6.60,6.25,62.0,776.00,752.8
2018-03-18,10:40:00,DRY,7.30,5.93,66.3,776.00,766.0
2018-03-18,10:45:00,DRY,7.85,5.80,72.5,776.00,779.2
2018-03-18,10:50:00,DRY,6.63,6.00,70.7,776.00,793.0
2018-03-18,10:55:00,DRY,5.00,6.25,70.5,776.00,805.5
2018-03-18,11:00:00,DRY,7.17,6.20,72.7,776.00,817.9
2018-03-18,11:05:00,DRY,8.25,5.95,74.0,776.00,836.6
2018-03-18,11:10:00,DRY,7.23,6.30,71.3,776.00,842.3
2018-03-18,11:15:00,DRY,6.75,6.05,76.0,776.00,854.0
2018-03-18,11:20:00,DRY,7.80,5.90,78.0,776.00,856.8
2018-03-18,11:25:00,DRY,8.25,6.05,77.5,776.00,872.7
2018-03-18,11:30:00,DRY,8.77,5.93,82.0,776.00,899.8
2018-03-18,11:35:00,DRY,7.40,5.80,84.5,776.00,666.1
2018-03-18,11:40:00,DRY,9.37,6.03,83.7,776.00,886.7
2018-03-18,11:45:00,DRY,8.30,5.95,83.5,776.00,930.8
2018-03-18,11:50:00,DRY,8.43,6.10,84.0,776.00,860.7
2018-03-18,11:55:00,DRY,9.30,6.70,78.5,776.00,925.0
2018-03-18,12:00:00,DRY,7.90,6.53,81.0,776.00,790.9
2018-03-18,12:05:00,DRY,7.50,6.55,84.0,776.00,755.8
2018-03-18,12:10:00,DRY,10.20,6.63,80.7,776.00,944.7
2018-03-18,12:15:00,DRY,9.75,7.05,79.0,776.00,951.5
2018-03-18,12:20:00,DRY,7.67,7.00,79.7,776.00,960.5
2018-03-18,12:25:00,DRY,8.85,7.10,80.5,776.00,956.4
2018-03-18,12:30:00,DRY,8.77,7.10,80.0,776.00,970.3
2018-03-18,12:35:00,DRY,6.60,7.10,81.5,776.00,965.5
2018-03-18,12:40:00,DRY,9.20,7.23,80.3,776.00,968.8
2018-03-18,12:45:00,DRY,8.85,7.30,79.0,776.00,973.7
2018-03-18,12:50:00,WET,8.80,7.47,78.7,776.00,976.2
2018-03-18,12:55:00,WET,8.80,7.55,80.5,776.00,981.1
2018-03-18,13:00:00,DRY,10.27,7.73,76.7,776.00,980.9
2018-03-18,13:05:00,DRY,9.35,7.65,73.5,776.00,982.7
2018-03-18,13:10:00,DRY,8.97,7.57,77.7,776.00,984.7
2018-03-18,13:15:00,DRY,8.55,7.70,75.5,775.50,983.7
2018-03-18,13:20:00,DRY,8.40,7.77,77.3,775.67,985.6
2018-03-18,13:25:00,DRY,9.35,7.70,76.5,775.50,986.6
2018-03-18,13:30:00,WET,9.30,7.40,79.0,776.00,986.4
2018-03-18,13:35:00,DRY,6.50,7.50,79.0,776.00,1017.1
2018-03-18,13:40:00,DRY,7.83,7.43,77.0,775.67,983.7
2018-03-18,13:45:00,DRY,8.80,7.40,77.5,776.00,988.7
2018-03-18,13:50:00,DRY,8.40,7.43,77.0,775.00,985.2
2018-03-18,13:55:00,WET,7.50,7.25,80.0,775.50,963.3
2018-03-18,14:00:00,DRY,8.50,7.23,77.7,775.00,975.6
2018-03-18,14:05:00,WET,9.60,7.20,77.5,775.00,772.8
2018-03-18,14:10:00,DRY,8.50,7.07,78.3,775.00,963.6
2018-03-18,14:15:00,WET,7.35,7.15,76.0,775.00,958.3
2018-03-18,14:20:00,DRY,8.80,7.30,74.7,775.00,953.0
2018-03-18,14:25:00,DRY,7.75,7.20,75.0,775.00,947.4
2018-03-18,14:30:00,DRY,8.30,7.23,74.0,775.00,941.3
2018-03-18,14:35:00,DRY,8.15,7.35,75.0,775.00,933.5
2018-03-18,14:40:00,WET,8.30,7.07,75.7,775.00,925.8
2018-03-18,14:45:00,DRY,8.30,7.10,74.5,775.00,917.0
2018-03-18,14:50:00,WET,9.00,7.03,75.0,775.00,910.8
2018-03-18,14:55:00,WET,8.25,7.35,75.5,775.00,900.9
2018-03-18,15:00:00,WET,7.90,7.20,74.3,775.00,891.6
2018-03-18,15:05:00,WET,8.65,7.30,74.0,775.00,883.5
2018-03-18,15:10:00,WET,6.93,7.13,73.7,775.00,871.7
2018-03-18,15:15:00,WET,7.70,7.00,72.5,775.00,861.2
2018-03-18,15:20:00,WET,8.00,7.10,70.0,775.00,850.6
2018-03-18,15:25:00,WET,6.90,6.95,70.5,775.00,838.6
2018-03-18,15:30:00,WET,7.40,6.90,69.3,775.00,826.1
2018-03-18,15:35:00,DRY,9.05,7.00,64.0,775.00,814.9
2018-03-18,15:40:00,DRY,6.67,7.07,65.3,775.00,802.2
2018-03-18,15:45:00,DRY,8.20,6.90,61.0,775.00,786.8
2018-03-18,15:50:00,DRY,8.13,7.00,64.7,775.00,773.2
2018-03-18,15:55:00,DRY,8.85,7.15,55.5,775.00,761.3
2018-03-18,16:00:00,DRY,8.33,6.93,60.7,775.00,744.8
2018-03-18,16:05:00,DRY,8.75,7.15,52.5,775.00,731.0
2018-03-18,16:10:00,DRY,6.17,7.03,58.3,775.00,716.6
2018-03-18,16:15:00,DRY,7.35,7.05,55.0,775.00,700.1
2018-03-18,16:20:00,DRY,8.27,7.17,47.7,775.00,686.4
2018-03-18,16:25:00,DRY,9.60,7.50,38.0,775.00,668.2
2018-03-18,16:30:00,DRY,6.67,7.47,35.7,775.00,651.2
2018-03-18,16:35:00,DRY,6.90,7.50,38.5,775.00,635.1
2018-03-18,16:40:00,DRY,7.97,7.47,34.0,775.00,617.2
2018-03-18,16:45:00,DRY,7.20,7.50,31.0,775.00,599.5
2018-03-18,16:50:00,DRY,8.10,7.53,30.3,775.00,581.9
2018-03-18,16:55:00,DRY,6.85,7.45,31.5,775.00,562.3
2018-03-18,17:00:00,DRY,7.30,7.47,30.3,775.00,544.0
2018-03-18,17:05:00,DRY,7.35,7.40,31.5,775.00,525.0
2018-03-18,17:10:00,DRY,8.00,7.40,29.3,775.00,505.8
2018-03-18,17:15:00,DRY,7.95,7.45,29.0,775.00,486.1
2018-03-18,17:20:00,DRY,7.73,7.20,36.0,775.00,465.5
2018-03-18,17:25:00,DRY,8.00,7.30,34.0,775.00,445.4
2018-03-18,17:30:00,DRY,7.10,7.20,40.0,775.00,423.5
2018-03-18,17:35:00,DRY,9.05,7.10,41.0,775.00,401.1
2018-03-18,17:40:00,DRY,8.40,7.27,34.7,775.00,381.5
2018-03-18,17:45:00,DRY,7.25,7.00,33.5,775.00,359.3
2018-03-18,17:50:00,DRY,7.77,7.07,41.0,775.00,337.4
2018-03-18,17:55:00,DRY,9.60,6.95,44.5,775.00,316.4
2018-03-18,18:00:00,DRY,7.47,6.73,41.7,775.00,294.2
2018-03-18,18:05:00,DRY,7.25,6.50,42.0,775.00,272.5
2018-03-18,18:10:00,DRY,9.23,6.53,48.0,775.00,251.6
2018-03-18,18:15:00,DRY,7.30,6.90,49.0,775.00,230.4
2018-03-18,18:20:00,DRY,7.93,6.53,51.0,775.00,209.2
2018-03-18,18:25:00,DRY,8.95,6.65,55.0,775.00,188.4
2018-03-18,18:30:00,DRY,7.30,6.50,53.3,775.00,168.7
2018-03-18,18:35:00,DRY,7.65,6.50,50.5,775.00,120.9
2018-03-18,18:40:00,DRY,8.50,6.30,54.3,775.00,18.8
2018-03-18,18:45:00,DRY,8.70,6.20,54.0,775.00,15.9
2018-03-18,18:50:00,DRY,7.87,6.10,55.7,775.00,15.1
2018-03-18,18:55:00,DRY,9.75,6.10,57.5,775.00,13.2
2018-03-18,19:00:00,DRY,8.90,6.00,57.7,775.00,11.4
2018-03-18,19:05:00,DRY,8.60,5.85,59.0,775.00,10.7
2018-03-18,19:10:00,DRY,9.00,5.73,59.3,775.00,8.0
2018-03-18,19:15:00,WET,9.90,5.75,60.5,775.00,5.5
2018-03-18,19:20:00,WET,10.20,5.63,61.0,775.00,4.1
2018-03-18,19:25:00,WET,7.70,5.60,61.5,775.00,1.0
2018-03-18,19:30:00,WET,8.53,5.60,62.7,775.00,0.0
2018-03-18,19:35:00,WET,8.40,5.40,63.5,775.00,0.0
2018-03-18,19:40:00,WET,9.60,5.47,63.3,775.00,0.0
2018-03-18,19:45:00,WET,8.50,5.70,63.0,775.50,0.0
2018-03-18,19:50:00,WET,8.57,5.63,63.0,775.33,0.0
2018-03-18,19:55:00,WET,8.05,5.35,62.0,775.50,0.0
2018-03-18,20:00:00,WET,10.07,5.27,63.0,775.00,0.0
2018-03-18,20:05:00,WET,9.10,5.35,63.0,775.50,0.0
2018-03-18,20:10:00,WET,9.87,5.27,64.3,775.33,0.0
2018-03-18,20:15:00,WET,9.25,5.30,65.0,775.50,0.0
2018-03-18,20:20:00,WET,9.97,5.37,65.0,775.33,0.0
2018-03-18,20:25:00,WET,8.80,5.25,64.5,776.00,0.0
2018-03-18,20:30:00,WET,8.77,5.10,65.7,776.00,0.0
2018-03-18,20:35:00,WET,8.70,5.05,65.5,776.00,0.0
2018-03-18,20:40:00,WET,9.00,5.03,66.0,776.00,0.0
2018-03-18,20:45:00,WET,9.15,4.95,66.0,776.00,0.0
2018-03-18,20:50:00,WET,8.30,4.90,66.0,776.00,0.0
2018-03-18,20:55:00,WET,8.65,4.95,66.0,776.00,0.0
2018-03-18,21:00:00,WET,10.37,4.73,66.7,776.00,0.0
2018-03-18,21:05:00,WET,9.45,4.85,67.0,776.00,0.0
2018-03-18,21:10:00,WET,8.40,4.93,67.3,776.00,0.0
2018-03-18,21:15:00,WET,8.95,4.80,65.5,776.00,0.0
2018-03-18,21:20:00,WET,9.57,4.80,65.7,776.00,0.0
2018-03-18,21:25:00,WET,10.70,4.90,67.0,776.00,0.0
2018-03-18,21:30:00,WET,9.60,4.83,67.3,776.00,0.0
2018-03-18,21:35:00,WET,8.80,4.85,67.5,776.00,0.0
2018-03-18,21:40:00,WET,11.13,5.00,69.7,776.00,0.0
2018-03-18,21:45:00,WET,9.45,4.75,67.5,776.00,0.0
2018-03-18,21:50:00,WET,10.00,4.87,69.7,776.00,0.0
2018-03-18,21:55:00,WET,9.85,4.80,70.5,776.00,0.0
2018-03-18,22:00:00,WET,9.50,4.80,71.7,776.00,0.0
2018-03-18,22:05:00,WET,9.75,4.65,72.5,776.00,0.0
2018-03-18,22:10:00,WET,10.67,4.60,73.7,776.00,0.0
2018-03-18,22:15:00,WET,10.65,4.45,74.0,776.00,0.0
2018-03-18,22:20:00,WET,9.57,4.53,74.3,776.00,0.0
2018-03-18,22:25:00,WET,9.20,4.60,74.0,776.50,0.0
2018-03-18,22:30:00,WET,9.57,4.67,75.0,776.33,0.0
2018-03-18,22:35:00,WET,9.40,4.60,76.5,776.00,0.0
2018-03-18,22:40:00,WET,8.57,4.57,77.0,776.00,0.0
2018-03-18,22:45:00,WET,8.00,4.60,77.0,776.50,0.0
2018-03-18,22:50:00,WET,8.87,4.50,78.0,777.00,0.0
2018-03-18,22:55:00,WET,7.95,4.60,78.0,777.00,0.0
2018-03-18,23:00:00,WET,7.87,4.53,79.0,777.00,0.0
2018-03-18,23:05:00,WET,10.05,4.50,79.5,777.00,0.0
2018-03-18,23:10:00,WET,9.00,4.53,79.0,777.00,0.0
2018-03-18,23:15:00,WET,8.55,4.45,79.5,777.00,0.0
2018-03-18,23:20:00,WET,9.10,4.47,80.7,777.00,0.0
2018-03-18,23:25:00,WET,9.60,4.35,82.0,777.00,0.0
2018-03-18,23:30:00,WET,10.87,4.40,82.3,777.00,0.0
2018-03-18,23:35:00,WET,8.40,4.30,83.0,777.00,0.0
2018-03-18,23:40:00,WET,7.70,4.30,83.3,777.00,0.0
2018-03-18,23:45:00,WET,9.60,4.30,84.0,777.00,0.0
2018-03-18,23:50:00,WET,8.80,4.20,84.7,776.67,0.0
2018-03-18,23:55:00,WET,8.90,4.20,85.5,777.00,0.0
2018-03-19,00:00:00,WET,8.57,4.17,85.7,776.67,0.0
2018-03-19,00:05:00,WET,9.65,4.10,87.0,777.00,0.0
2018-03-19,00:10:00,WET,8.93,4.10,87.0,776.33,0.0
2018-03-19,00:15:00,WET,9.15,4.05,87.0,776.00,0.0
2018-03-19,00:20:00,WET,9.57,4.00,87.7,777.00,0.0
2018-03-19,00:25:00,WET,9.35,4.00,87.5,777.00,0.0
2018-03-19,00:30:00,WET,8.17,4.00,88.0,776.67,0.0
2018-03-19,00:35:00,WET,9.00,3.90,88.0,776.00,0.0
2018-03-19,00:40:00,WET,9.93,3.90,88.3,776.00,0.0
2018-03-19,00:45:00,WET,9.85,3.90,88.0,776.00,0.0
2018-03-19,00:50:00,WET,9.20,3.97,83.7,776.00,0.0
2018-03-19,00:55:00,WET,8.80,3.90,87.5,776.00,0.0
2018-03-19,01:00:00,WET,9.83,4.00,81.7,776.00,0.0
2018-03-19,01:05:00,WET,9.45,3.80,85.5,776.00,0.0
2018-03-19,01:10:00,WET,9.93,4.00,83.3,776.00,0.0
2018-03-19,01:15:00,WET,8.00,4.00,81.5,776.00,0.0
2018-03-19,01:20:00,WET,9.57,3.93,82.3,776.00,0.0
2018-03-19,01:25:00,WET,10.35,4.10,76.5,776.00,0.0
2018-03-19,01:30:00,WET,8.40,4.23,72.0,776.00,0.0
2018-03-19,01:35:00,WET,8.90,4.15,75.0,776.00,0.0
2018-03-19,01:40:00,WET,8.87,4.37,69.0,776.00,0.0
2018-03-19,01:45:00,WET,9.25,4.25,70.5,776.00,0.0
2018-03-19,01:50:00,WET,9.07,4.23,71.3,776.00,0.0
2018-03-19,01:55:00,WET,8.75,4.20,72.0,776.00,0.0
2018-03-19,02:00:00,WET,9.80,4.03,73.0,776.00,0.0
2018-03-19,02:05:00,WET,10.20,4.00,73.5,776.00,0.0
2018-03-19,02:10:00,WET,8.97,4.07,74.0,776.00,0.0
2018-03-19,02:15:00,WET,9.15,4.05,72.5,776.00,0.0
2018-03-19,02:20:00,WET,9.37,4.03,73.3,776.00,0.0
2018-03-19,02:25:00,WET,9.20,4.05,73.5,776.00,0.0
2018-03-19,02:30:00,WET,8.73,3.90,75.7,776.00,0.0
2018-03-19,02:35:00,WET,9.20,3.85,78.5,776.00,0.0
2018-03-19,02:40:00,WET,9.13,3.87,77.0,776.00,0.0
2018-03-19,02:45:00,WET,9.00,4.00,75.5,775.50,0.0
2018-03-19,02:50:00,WET,9.87,4.07,73.7,775.67,0.0
2018-03-19,02:55:00,WET,9.70,4.15,71.5,775.00,0.0
2018-03-19,03:00:00,WET,10.97,4.13,71.0,775.00,0.0
2018-03-19,03:05:00,WET,9.25,3.95,74.5,775.50,0.8
2018-03-19,03:10:00,WET,10.07,4.10,71.0,775.00,0.0
2018-03-19,03:15:00,WET,10.35,4.15,67.0,775.00,0.0
2018-03-19,03:20:00,WET,9.20,4.43,62.3,775.00,0.0
2018-03-19,03:25:00,WET,10.30,4.35,65.5,775.00,0.0
2018-03-19,03:30:00,WET,10.80,4.37,66.0,775.00,0.0
2018-03-19,03:35:00,WET,9.75,4.10,73.0,775.00,0.0
2018-03-19,03:40:00,WET,8.63,4.03,70.3,775.00,0.0
2018-03-19,03:45:00,WET,10.20,4.45,63.0,775.00,0.0
2018-03-19,03:50:00,WET,11.93,4.70,57.3,775.00,0.0
2018-03-19,03:55:00,WET,9.55,4.75,59.0,775.00,0.0
2018-03-19,04:00:00,WET,10.63,4.50,62.0,775.00,0.0
2018-03-19,04:05:00,WET,8.40,4.45,64.0,775.00,0.0
2018-03-19,04:10:00,WET,10.63,4.40,62.3,775.00,0.0
2018-03-19,04:15:00,WET,11.10,4.65,61.5,775.00,0.0
2018-03-19,04:20:00,WET,8.90,4.37,65.7,775.00,0.0
2018-03-19,04:25:00,WET,9.45,4.45,62.0,775.00,0.0
2018-03-19,04:30:00,WET,10.70,4.73,59.3,775.00,0.0
2018-03-19,04:35:00,WET,8.90,4.75,60.0,775.00,0.0
2018-03-19,04:40:00,WET,9.80,4.57,60.7,775.00,0.0
2018-03-19,04:45:00,WET,9.05,4.85,57.5,775.00,0.0
2018-03-19,04:50:00,WET,10.13,4.93,57.0,775.00,0.0
2018-03-19,04:55:00,WET,9.55,5.00,54.5,775.00,0.0
2018-03-19,05:00:00,WET,9.67,5.00,58.0,775.00,0.0
2018-03-19,05:05:00,WET,10.85,4.75,57.0,775.00,0.0
2018-03-19,05:10:00,WET,9.57,4.77,58.3,775.00,0.0
2018-03-19,05:15:00,WET,10.05,4.75,58.0,775.00,0.0
2018-03-19,05:20:00,WET,9.73,5.10,54.7,775.00,0.0
2018-03-19,05:25:00,WET,9.25,4.55,61.5,775.00,0.0
2018-03-19,05:30:00,WET,10.87,4.83,53.7,775.00,0.0
2018-03-19,05:35:00,WET,10.95,4.75,58.0,775.00,0.0
2018-03-19,05:40:00,WET,10.47,4.80,54.3,775.00,0.0
2018-03-19,05:45:00,DRY,13.10,4.95,50.5,775.00,0.0
2018-03-19,05:50:00,DRY,10.10,5.00,50.7,775.00,0.0
2018-03-19,05:55:00,DRY,10.25,4.80,53.0,775.00,0.0
2018-03-19,06:00:00,DRY,8.93,4.87,53.7,775.00,0.0
2018-03-19,06:05:00,WET,9.10,4.75,55.0,775.00,0.0
2018-03-19,06:10:00,DRY,10.30,4.90,52.0,775.00,0.0
2018-03-19,06:15:00,DRY,10.30,4.80,53.0,775.00,0.0
2018-03-19,06:20:00,WET,9.40,4.80,55.0,775.00,0.0
2018-03-19,06:25:00,WET,8.90,4.70,56.5,775.00,0.0
2018-03-19,06:30:00,DRY,9.53,4.90,52.0,775.33,0.0
2018-03-19,06:35:00,DRY,9.90,4.80,52.5,776.00,0.0
2018-03-19,06:40:00,DRY,9.37,4.83,51.3,775.00,0.0
2018-03-19,06:45:00,DRY,9.65,4.75,53.0,776.00,0.0
2018-03-19,06:50:00,DRY,10.33,4.87,49.7,775.67,0.0
2018-03-19,06:55:00,DRY,10.40,4.90,51.0,776.00,0.0
2018-03-19,07:00:00,DRY,10.43,4.87,51.3,776.00,0.0
2018-03-19,07:05:00,DRY,9.60,4.90,49.5,776.00,0.0
2018-03-19,07:10:00,DRY,9.70,4.77,50.3,775.67,1.0
2018-03-19,07:15:00,DRY,9.25,4.90,51.5,776.00,2.4
2018-03-19,07:20:00,DRY,10.37,4.80,50.7,776.00,5.1
2018-03-19,07:25:00,DRY,8.95,4.70,50.5,776.00,7.2
2018-03-19,07:30:00,DRY,9.33,4.63,52.0,776.00,9.4
2018-03-19,07:35:00,DRY,9.20,4.75,51.0,776.00,11.2
2018-03-19,07:40:00,DRY,10.27,4.77,50.3,776.00,14.2
2018-03-19,07:45:00,DRY,9.55,4.90,48.5,776.00,15.0
2018-03-19,07:50:00,DRY,10.90,5.23,46.0,776.00,16.9
2018-03-19,07:55:00,DRY,11.70,5.20,46.0,776.00,18.5
2018-03-19,08:00:00,DRY,10.13,5.17,45.0,776.00,19.4
2018-03-19,08:05:00,DRY,9.15,5.40,43.0,776.00,21.1
2018-03-19,08:10:00,DRY,10.40,5.43,42.3,776.00,70.4
2018-03-19,08:15:00,DRY,9.35,5.60,41.5,776.00,238.6
2018-03-19,08:20:00,DRY,10.53,5.63,41.3,776.00,260.6
2018-03-19,08:25:00,DRY,8.90,5.70,40.5,776.00,282.7
2018-03-19,08:30:00,DRY,9.60,5.77,40.7,776.00,304.8
2018-03-19,08:35:00,DRY,9.85,5.95,38.0,776.00,327.2
2018-03-19,08:40:00,DRY,9.77,6.03,36.3,776.00,348.1
2018-03-19,08:45:00,DRY,9.05,5.95,38.0,776.00,368.7
2018-03-19,08:50:00,DRY,9.93,6.17,37.0,776.00,390.0
2018-03-19,08:55:00,DRY,7.95,6.25,38.5,776.50,411.5
2018-03-19,09:00:00,DRY,8.53,6.07,40.3,776.67,432.8
2018-03-19,09:05:00,DRY,10.25,6.20,39.0,776.00,453.6
2018-03-19,09:10:00,DRY,9.23,6.43,37.7,776.67,474.3
2018-03-19,09:15:00,DRY,7.85,6.60,38.0,777.00,493.7
2018-03-19,09:20:00,DRY,7.33,6.67,37.0,777.00,511.3
2018-03-19,09:25:00,DRY,8.95,6.75,38.0,777.00,532.0
2018-03-19,09:30:00,DRY,9.50,6.67,39.0,777.00,552.1
2018-03-19,09:35:00,DRY,9.50,6.90,37.5,777.00,570.8
2018-03-19,09:40:00,DRY,7.63,6.97,37.0,777.00,590.6
2018-03-19,09:45:00,DRY,9.85,7.05,37.0,777.00,608.1
2018-03-19,09:50:00,DRY,9.63,7.00,36.7,777.00,626.9
2018-03-19,09:55:00,DRY,8.80,7.15,36.0,777.00,642.3
2018-03-19,10:00:00,DRY,8.67,7.13,36.3,777.00,658.3
2018-03-19,10:05:00,DRY,8.10,7.10,36.5,777.00,673.8
2018-03-19,10:10:00,DRY,6.87,7.33,36.0,777.00,691.0
2018-03-19,10:15:00,DRY,8.25,7.25,36.0,777.00,707.5
2018-03-19,10:20:00,DRY,9.37,7.37,35.7,777.00,724.5
2018-03-19,10:25:00,DRY,7.70,7.25,36.0,777.00,740.7
2018-03-19,10:30:00,DRY,10.23,7.30,35.7,777.00,753.8
2018-03-19,10:35:00,DRY,8.65,7.40,35.0,777.00,769.0
2018-03-19,10:40:00,DRY,8.93,7.43,35.7,777.00,783.7
2018-03-19,10:45:00,DRY,5.55,7.40,36.0,777.00,797.6
2018-03-19,10:50:00,DRY,8.63,7.47,35.7,777.00,809.8
2018-03-19,10:55:00,DRY,7.75,7.45,36.5,777.00,824.2
2018-03-19,11:00:00,DRY,8.93,7.50,36.0,777.00,835.2
2018-03-19,11:05:00,DRY,8.60,7.60,36.0,777.00,848.0
2018-03-19,11:10:00,DRY,8.63,7.43,37.7,777.00,859.5
2018-03-19,11:15:00,DRY,7.75,7.55,39.0,777.00,869.0
2018-03-19,11:20:00,DRY,8.27,7.50,38.3,777.00,880.2
2018-03-19,11:25:00,DRY,6.15,7.40,38.0,777.00,890.8
2018-03-19,11:30:00,DRY,7.83,7.57,38.7,777.00,901.2
2018-03-19,11:35:00,DRY,4.65,7.50,40.0,777.00,910.0
2018-03-19,11:40:00,DRY,9.00,7.70,38.7,777.00,918.0
2018-03-19,11:45:00,DRY,8.75,7.60,37.5,777.00,927.3
2018-03-19,11:50:00,DRY,8.77,7.60,38.7,777.00,933.8
2018-03-19,11:55:00,DRY,7.35,7.80,39.5,777.00,940.5
2018-03-19,12:00:00,DRY,8.87,7.77,39.0,777.00,948.6
2018-03-19,12:05:00,DRY,6.80,7.85,38.5,777.00,954.5
2018-03-19,12:10:00,DRY,8.00,7.70,38.7,777.00,961.3
2018-03-19,12:15:00,DRY,7.45,7.75,37.5,777.00,967.3
2018-03-19,12:20:00,DRY,6.73,7.77,39.0,777.00,972.0
2018-03-19,12:25:00,DRY,7.45,7.90,38.5,777.00,976.5
2018-03-19,12:30:00,DRY,6.53,7.93,37.7,777.00,981.2
2018-03-19,12:35:00,DRY,7.05,7.80,38.0,777.00,985.2
2018-03-19,12:40:00,DRY,8.10,7.77,37.3,777.00,987.2
2018-03-19,12:45:00,DRY,7.20,7.65,38.5,777.00,990.4
2018-03-19,12:50:00,DRY,8.47,7.50,40.3,777.00,993.6
2018-03-19,12:55:00,DRY,6.60,7.30,43.5,777.00,998.0
2018-03-19,13:00:00,DRY,6.73,7.53,41.7,777.00,997.7
2018-03-19,13:05:00,DRY,7.95,7.30,44.5,777.00,998.0
2018-03-19,13:10:00,DRY,6.67,7.47,44.7,777.00,999.9
2018-03-19,13:15:00,DRY,5.75,7.25,45.0,777.00,1000.3
2018-03-19,13:20:00,DRY,8.03,6.97,47.7,777.00,1001.5
2018-03-19,13:25:00,DRY,8.10,6.95,46.5,777.00,1001.0
2018-03-19,13:30:00,DRY,8.90,6.30,53.0,777.00,999.7
2018-03-19,13:35:00,DRY,7.50,6.90,51.0,777.00,998.0
2018-03-19,13:40:00,DRY,7.60,6.43,63.0,777.00,997.2
2018-03-19,13:45:00,DRY,5.95,6.55,58.0,777.00,994.9
2018-03-19,13:50:00,DRY,6.00,6.23,68.0,777.00,990.8
2018-03-19,13:55:00,DRY,6.65,6.55,65.5,777.00,988.8
2018-03-19,14:00:00,DRY,6.27,6.33,64.7,776.67,985.3
2018-03-19,14:05:00,DRY,5.50,6.15,69.0,777.00,981.0
2018-03-19,14:10:00,DRY,5.73,6.50,69.7,777.00,977.6
2018-03-19,14:15:00,DRY,7.20,6.20,70.5,777.00,970.8
2018-03-19,14:20:00,DRY,7.13,6.17,70.7,777.00,965.1
2018-03-19,14:25:00,DRY,7.30,6.20,68.0,776.50,959.1
2018-03-19,14:30:00,DRY,7.50,6.13,66.3,777.00,952.5
2018-03-19,14:35:00,DRY,7.35,6.10,69.5,777.00,946.3
2018-03-19,14:40:00,DRY,5.73,5.93,72.7,777.00,939.5
2018-03-19,14:45:00,WET,8.40,5.70,74.5,777.00,918.4
2018-03-19,14:50:00,DRY,6.87,5.60,75.7,776.00,921.9
2018-03-19,14:55:00,DRY,9.55,5.80,73.5,776.00,913.5
2018-03-19,15:00:00,WET,7.37,5.83,76.3,776.00,903.5
2018-03-19,15:05:00,WET,7.35,6.05,74.0,776.00,897.2
2018-03-19,15:10:00,WET,6.63,5.70,77.7,776.00,883.6
2018-03-19,15:15:00,WET,8.10,5.85,76.0,776.00,876.8
2018-03-19,15:20:00,WET,7.47,5.70,78.0,776.00,862.2
2018-03-19,15:25:00,WET,6.20,5.50,79.0,776.00,853.0
2018-03-19,15:30:00,WET,6.40,5.37,79.7,776.00,839.2
2018-03-19,15:35:00,WET,6.25,5.35,81.0,776.00,854.4
2018-03-19,15:40:00,WET,7.80,5.50,80.0,776.00,812.7
2018-03-19,15:45:00,WET,8.30,5.20,81.0,776.00,806.6
2018-03-19,15:50:00,WET,7.67,5.17,81.0,776.00,787.6
2018-03-19,15:55:00,WET,6.05,5.40,79.0,776.00,770.5
2018-03-19,16:00:00,WET,8.67,5.30,81.7,776.00,754.2
2018-03-19,16:05:00,WET,7.70,5.60,73.5,776.00,738.8
2018-03-19,16:10:00,WET,6.03,5.20,82.0,776.00,725.8
2018-03-19,16:15:00,WET,7.25,5.00,84.5,776.00,709.2
2018-03-19,16:20:00,WET,7.40,5.13,82.0,776.00,715.8
2018-03-19,16:25:00,WET,8.10,5.15,82.0,776.00,692.1
2018-03-19,16:30:00,WET,7.87,5.00,83.7,776.00,689.0
2018-03-19,16:35:00,WET,8.95,5.10,78.5,776.00,643.0
2018-03-19,16:40:00,WET,9.77,5.20,76.3,776.00,624.4
2018-03-19,16:45:00,WET,8.35,5.05,82.0,776.00,599.3
2018-03-19,16:50:00,WET,7.60,4.73,85.0,776.00,595.2
2018-03-19,16:55:00,WET,7.50,4.95,83.0,776.00,569.9
2018-03-19,17:00:00,WET,9.13,4.50,86.7,776.00,496.4
2018-03-19,17:05:00,WET,8.65,4.30,86.5,776.00,529.2
2018-03-19,17:10:00,WET,7.27,4.27,84.7,776.00,512.1